Time,TemperatureF,DewpointF,PressureIn,WindDirection,WindDirectionDegrees,WindSpeedMPH,WindSpeedGustMPH,Humidity,HourlyPrecipIn,Conditions,Clouds,dailyrainin,SolarRadiationWatts/m^2,SoftwareType,DateUTC
2013-06-19 00:22:00,43.0,38.0,-100.00,North,3,1.0,2.0,83,0.00,,,0.00,1.000000,,2013-06-19 04:22:00,
2013-06-19 00:32:00,43.0,38.0,-100.00,North,3,1.0,2.0,83,0.00,,,0.00,1.000000,,2013-06-19 04:32:00,
2013-06-19 00:42:00,43.0,38.0,-100.00,North,3,1.0,2.0,83,0.00,,,0.00,1.000000,,2013-06-19 04:42:00,
2013-06-19 00:53:00,43.0,38.0,-100.00,North,3,1.0,2.0,83,0.00,,,0.00,1.000000,,2013-06-19 04:53:00,
2013-06-19 01:22:00,45.0,40.0,-100.00,SE,136,3.0,5.0,84,0.00,,,0.00,1.000000,,2013-06-19 05:22:00,
2013-06-19 01:32:00,45.0,40.0,-100.00,SE,136,3.0,5.0,84,0.00,,,0.00,1.000000,,2013-06-19 05:32:00,
2013-06-19 01:42:00,45.0,40.0,-100.00,SE,136,3.0,5.0,84,0.00,,,0.00,1.000000,,2013-06-19 05:42:00,
2013-06-19 01:52:00,45.0,40.0,-100.00,SE,136,3.0,5.0,84,0.00,,,0.00,1.000000,,2013-06-19 05:52:00,
2013-06-19 02:22:00,43.0,38.0,-100.00,SE,128,1.0,6.0,81,0.00,,,0.00,1.000000,,2013-06-19 06:22:00,
2013-06-19 02:33:00,43.0,38.0,-100.00,SE,128,1.0,6.0,81,0.00,,,0.00,1.000000,,2013-06-19 06:33:00,
2013-06-19 02:42:00,43.0,38.0,-100.00,SE,128,1.0,6.0,81,0.00,,,0.00,1.000000,,2013-06-19 06:42:00,
2013-06-19 02:52:00,43.0,38.0,-100.00,SE,128,1.0,6.0,81,0.00,,,0.00,1.000000,,2013-06-19 06:52:00,
2013-06-19 03:22:00,40.0,38.0,-100.00,South,179,1.0,2.0,91,0.00,,,0.00,1.000000,,2013-06-19 07:22:00,
2013-06-19 03:33:00,40.0,38.0,-100.00,South,179,1.0,2.0,91,0.00,,,0.00,1.000000,,2013-06-19 07:33:00,
2013-06-19 03:43:00,40.0,38.0,-100.00,South,179,1.0,2.0,91,0.00,,,0.00,1.000000,,2013-06-19 07:43:00,
2013-06-19 03:53:00,40.0,38.0,-100.00,South,179,1.0,2.0,91,0.00,,,0.00,1.000000,,2013-06-19 07:53:00,
2013-06-19 04:22:00,40.0,38.0,-100.00,ESE,105,0.0,2.0,94,0.00,,,0.00,1.000000,,2013-06-19 08:22:00,
2013-06-19 04:33:00,40.0,38.0,-100.00,ESE,105,0.0,2.0,94,0.00,,,0.00,1.000000,,2013-06-19 08:33:00,
2013-06-19 04:43:00,40.0,38.0,-100.00,ESE,105,0.0,2.0,94,0.00,,,0.00,1.000000,,2013-06-19 08:43:00,
2013-06-19 04:53:00,40.0,38.0,-100.00,ESE,105,0.0,2.0,94,0.00,,,0.00,1.000000,,2013-06-19 08:53:00,
2013-06-19 05:22:00,41.0,40.0,-100.00,South,170,2.0,5.0,96,0.00,,,0.00,1.000000,,2013-06-19 09:22:00,
2013-06-19 05:34:00,41.0,40.0,-100.00,South,170,2.0,5.0,96,0.00,,,0.00,1.000000,,2013-06-19 09:34:00,
2013-06-19 05:43:00,41.0,40.0,-100.00,South,170,2.0,5.0,96,0.00,,,0.00,1.000000,,2013-06-19 09:43:00,
2013-06-19 05:53:00,41.0,40.0,-100.00,South,170,2.0,5.0,96,0.00,,,0.00,1.000000,,2013-06-19 09:53:00,
2013-06-19 06:22:00,40.0,38.0,-100.00,ESE,119,0.0,5.0,94,0.00,,,0.00,1.000000,,2013-06-19 10:22:00,
2013-06-19 06:33:00,40.0,38.0,-100.00,ESE,119,0.0,5.0,94,0.00,,,0.00,1.000000,,2013-06-19 10:33:00,
2013-06-19 06:42:00,40.0,38.0,-100.00,ESE,119,0.0,5.0,94,0.00,,,0.00,1.000000,,2013-06-19 10:42:00,
2013-06-19 06:52:00,40.0,38.0,-100.00,ESE,119,0.0,5.0,94,0.00,,,0.00,1.000000,,2013-06-19 10:52:00,
2013-06-19 07:22:00,40.0,39.0,-100.00,SE,144,1.0,2.0,96,0.00,,,0.00,12.000000,,2013-06-19 11:22:00,
2013-06-19 07:33:00,40.0,39.0,-100.00,SE,144,1.0,2.0,96,0.00,,,0.00,12.000000,,2013-06-19 11:33:00,
2013-06-19 07:42:00,40.0,39.0,-100.00,SE,144,1.0,2.0,96,0.00,,,0.00,12.000000,,2013-06-19 11:42:00,
2013-06-19 07:54:00,40.0,39.0,-100.00,SE,144,1.0,2.0,96,0.00,,,0.00,12.000000,,2013-06-19 11:54:00,
2013-06-19 08:22:00,52.0,45.0,-100.00,SSW,196,3.0,7.0,76,-99.99,,,0.00,64.000000,,2013-06-19 12:22:00,
2013-06-19 08:34:00,52.0,45.0,-100.00,SSW,196,3.0,7.0,76,-99.99,,,0.00,64.000000,,2013-06-19 12:34:00,
2013-06-19 08:44:00,52.0,45.0,-100.00,SSW,196,3.0,7.0,76,-99.99,,,0.00,64.000000,,2013-06-19 12:44:00,
2013-06-19 08:52:00,52.0,45.0,-100.00,SSW,196,3.0,7.0,76,-99.99,,,0.00,64.000000,,2013-06-19 12:52:00,
2013-06-19 09:22:00,61.0,42.0,-100.00,SSW,195,5.0,10.0,50,0.00,,,0.00,295.000000,,2013-06-19 13:22:00,
2013-06-19 09:33:00,61.0,42.0,-100.00,SSW,195,5.0,10.0,50,0.00,,,0.00,295.000000,,2013-06-19 13:33:00,
2013-06-19 09:42:00,61.0,42.0,-100.00,SSW,195,5.0,10.0,50,0.00,,,0.00,295.000000,,2013-06-19 13:42:00,
2013-06-19 09:53:00,61.0,42.0,-100.00,SSW,195,5.0,10.0,50,0.00,,,0.00,295.000000,,2013-06-19 13:53:00,
2013-06-19 10:22:00,67.0,43.0,-100.00,SW,218,5.0,10.0,42,0.00,,,0.00,467.000000,,2013-06-19 14:22:00,
2013-06-19 10:33:00,67.0,43.0,-100.00,SW,218,5.0,10.0,42,0.00,,,0.00,467.000000,,2013-06-19 14:33:00,
2013-06-19 10:43:00,67.0,43.0,-100.00,SW,218,5.0,10.0,42,0.00,,,0.00,467.000000,,2013-06-19 14:43:00,
2013-06-19 10:52:00,67.0,43.0,-100.00,SW,218,5.0,10.0,42,0.00,,,0.00,467.000000,,2013-06-19 14:52:00,
2013-06-19 11:22:00,70.0,43.0,-100.00,SSW,209,6.0,11.0,37,0.00,,,0.00,630.000000,,2013-06-19 15:22:00,
2013-06-19 11:33:00,70.0,43.0,-100.00,SSW,209,6.0,11.0,37,0.00,,,0.00,630.000000,,2013-06-19 15:33:00,
2013-06-19 11:42:00,70.0,43.0,-100.00,SSW,209,6.0,11.0,37,0.00,,,0.00,630.000000,,2013-06-19 15:42:00,
2013-06-19 11:53:00,70.0,43.0,-100.00,SSW,209,6.0,11.0,37,0.00,,,0.00,630.000000,,2013-06-19 15:53:00,
2013-06-19 12:22:00,73.0,45.0,-100.00,SSW,208,6.0,12.0,37,0.00,,,0.00,768.000000,,2013-06-19 16:22:00,
2013-06-19 12:34:00,73.0,45.0,-100.00,SSW,208,6.0,12.0,37,0.00,,,0.00,768.000000,,2013-06-19 16:34:00,
2013-06-19 12:43:00,73.0,45.0,-100.00,SSW,208,6.0,12.0,37,0.00,,,0.00,768.000000,,2013-06-19 16:43:00,
2013-06-19 12:52:00,73.0,45.0,-100.00,SSW,208,6.0,12.0,37,0.00,,,0.00,768.000000,,2013-06-19 16:52:00,
2013-06-19 13:22:00,75.0,46.0,-100.00,South,185,6.0,13.0,36,0.00,,,0.00,830.000000,,2013-06-19 17:22:00,
2013-06-19 13:34:00,75.0,46.0,-100.00,South,185,6.0,13.0,36,0.00,,,0.00,830.000000,,2013-06-19 17:34:00,
2013-06-19 13:43:00,75.0,46.0,-100.00,South,185,6.0,13.0,36,0.00,,,0.00,830.000000,,2013-06-19 17:43:00,
2013-06-19 13:53:00,75.0,46.0,-100.00,South,185,6.0,13.0,36,0.00,,,0.00,830.000000,,2013-06-19 17:53:00,
2013-06-19 14:24:00,75.0,48.0,-100.00,SW,216,6.0,13.0,39,0.00,,,0.00,730.000000,,2013-06-19 18:24:00,
2013-06-19 14:33:00,75.0,48.0,-100.00,SW,216,6.0,13.0,39,0.00,,,0.00,730.000000,,2013-06-19 18:33:00,
2013-06-19 14:44:00,75.0,48.0,-100.00,SW,216,6.0,13.0,39,0.00,,,0.00,730.000000,,2013-06-19 18:44:00,
2013-06-19 14:53:00,75.0,48.0,-100.00,SW,216,6.0,13.0,39,0.00,,,0.00,730.000000,,2013-06-19 18:53:00,
2013-06-19 15:22:00,75.0,45.0,-100.00,WSW,240,6.0,16.0,34,0.00,,,0.00,905.000000,,2013-06-19 19:22:00,
2013-06-19 15:32:00,75.0,45.0,-100.00,WSW,240,6.0,16.0,34,0.00,,,0.00,905.000000,,2013-06-19 19:32:00,
2013-06-19 15:43:00,75.0,45.0,-100.00,WSW,240,6.0,16.0,34,0.00,,,0.00,905.000000,,2013-06-19 19:43:00,
2013-06-19 15:52:00,75.0,45.0,-100.00,WSW,240,6.0,16.0,34,0.00,,,0.00,905.000000,,2013-06-19 19:52:00,
2013-06-19 16:22:00,78.0,46.0,-100.00,SSW,209,5.0,14.0,32,0.00,,,0.00,886.000000,,2013-06-19 20:22:00,
2013-06-19 16:33:00,78.0,46.0,-100.00,SSW,209,5.0,14.0,32,0.00,,,0.00,886.000000,,2013-06-19 20:33:00,
2013-06-19 16:42:00,78.0,46.0,-100.00,SSW,209,5.0,14.0,32,0.00,,,0.00,886.000000,,2013-06-19 20:42:00,
2013-06-19 16:52:00,78.0,46.0,-100.00,SSW,209,5.0,14.0,32,0.00,,,0.00,886.000000,,2013-06-19 20:52:00,
2013-06-19 17:22:00,79.0,46.0,-100.00,SSW,201,6.0,12.0,31,0.00,,,0.00,814.000000,,2013-06-19 21:22:00,
2013-06-19 17:33:00,79.0,46.0,-100.00,SSW,201,6.0,12.0,31,0.00,,,0.00,814.000000,,2013-06-19 21:33:00,
2013-06-19 17:44:00,79.0,46.0,-100.00,SSW,201,6.0,12.0,31,0.00,,,0.00,814.000000,,2013-06-19 21:44:00,
2013-06-19 17:52:00,79.0,46.0,-100.00,SSW,201,6.0,12.0,31,0.00,,,0.00,814.000000,,2013-06-19 21:52:00,
2013-06-19 18:22:00,79.0,47.0,-100.00,South,186,5.0,11.0,32,0.00,,,0.00,674.000000,,2013-06-19 22:22:00,
2013-06-19 18:34:00,79.0,47.0,-100.00,South,186,5.0,11.0,32,0.00,,,0.00,674.000000,,2013-06-19 22:34:00,
2013-06-19 18:43:00,79.0,47.0,-100.00,South,186,5.0,11.0,32,0.00,,,0.00,674.000000,,2013-06-19 22:43:00,
2013-06-19 18:53:00,79.0,47.0,-100.00,South,186,5.0,11.0,32,0.00,,,0.00,674.000000,,2013-06-19 22:53:00,
2013-06-19 19:23:00,79.0,47.0,-100.00,WSW,243,5.0,12.0,32,0.00,,,0.00,519.000000,,2013-06-19 23:23:00,
2013-06-19 19:33:00,79.0,47.0,-100.00,WSW,243,5.0,12.0,32,0.00,,,0.00,519.000000,,2013-06-19 23:33:00,
2013-06-19 19:43:00,79.0,47.0,-100.00,WSW,243,5.0,12.0,32,0.00,,,0.00,519.000000,,2013-06-19 23:43:00,
2013-06-19 19:52:00,79.0,47.0,-100.00,WSW,243,5.0,12.0,32,0.00,,,0.00,519.000000,,2013-06-19 23:52:00,
2013-06-19 20:22:00,78.0,47.0,-100.00,SSW,210,4.0,8.0,34,0.00,,,0.00,310.000000,,2013-06-20 00:22:00,
2013-06-19 20:33:00,78.0,47.0,-100.00,SSW,210,4.0,8.0,34,0.00,,,0.00,310.000000,,2013-06-20 00:33:00,
2013-06-19 20:44:00,78.0,47.0,-100.00,SSW,210,4.0,8.0,34,0.00,,,0.00,310.000000,,2013-06-20 00:44:00,
2013-06-19 20:52:00,78.0,47.0,-100.00,SSW,210,4.0,8.0,34,0.00,,,0.00,310.000000,,2013-06-20 00:52:00,
2013-06-19 21:22:00,74.0,47.0,-100.00,South,189,3.0,9.0,39,0.00,,,0.00,174.000000,,2013-06-20 01:22:00,
2013-06-19 21:33:00,74.0,47.0,-100.00,South,189,3.0,9.0,39,0.00,,,0.00,174.000000,,2013-06-20 01:33:00,
2013-06-19 21:44:00,74.0,47.0,-100.00,South,189,3.0,9.0,39,0.00,,,0.00,174.000000,,2013-06-20 01:44:00,
2013-06-19 21:52:00,74.0,47.0,-100.00,South,189,3.0,9.0,39,0.00,,,0.00,174.000000,,2013-06-20 01:52:00,
2013-06-19 22:24:00,62.0,51.0,-100.00,East,95,0.0,4.0,67,-99.99,,,0.00,18.000000,,2013-06-20 02:24:00,
2013-06-19 22:34:00,62.0,51.0,-100.00,East,95,0.0,4.0,67,-99.99,,,0.00,18.000000,,2013-06-20 02:34:00,
2013-06-19 22:43:00,62.0,51.0,-100.00,East,95,0.0,4.0,67,-99.99,,,0.00,18.000000,,2013-06-20 02:43:00,
2013-06-19 22:52:00,62.0,51.0,-100.00,East,95,0.0,4.0,67,-99.99,,,0.00,18.000000,,2013-06-20 02:52:00,
2013-06-19 23:22:00,56.0,50.0,-100.00,SE,141,1.0,2.0,81,0.00,,,0.00,1.000000,,2013-06-20 03:22:00,
2013-06-19 23:33:00,56.0,50.0,-100.00,SE,141,1.0,2.0,81,0.00,,,0.00,1.000000,,2013-06-20 03:33:00,
2013-06-19 23:43:00,56.0,50.0,-100.00,SE,141,1.0,2.0,81,0.00,,,0.00,1.000000,,2013-06-20 03:43:00,
2013-06-19 23:53:00,56.0,50.0,-100.00,SE,141,1.0,2.0,81,0.00,,,0.00,1.000000,,2013-06-20 03:53:00,